{"data":{"norad_id":60595,"intl_designator":"2024-150N","name":"STARLINK-32202","alt_names":[],"object_type":"PAYLOAD","status":"ACTIVE","operator":null,"country":"US","launch_date":"2024-08-20","launch_site_code":"AFETR","launch_vehicle":null,"mission":null,"orbit_class":"UNKNOWN","rcs_meters":null,"size_class":null,"mass_kg":null,"dimensions":null,"purposes":["comms"],"wikipedia_slug":null,"has_3d_model":false,"image_url":null,"decayed_at":null,"tle_current":{"epoch":"2026-05-24T21:07:19.349184Z","epoch_age_seconds":79293,"freshness":"FRESH","line1":"1 60595U 24150N   26144.88008506  .00022075  00000+0  75757-3 0  9998","line2":"2 60595  53.1606 313.3296 0002087  87.5823 272.5417 15.30098520 99701","mean_motion":15.3009852,"eccentricity":0.0002087,"inclination_deg":53.1606,"raan_deg":313.3296,"arg_perigee_deg":87.5823,"mean_anomaly_deg":272.5417,"bstar":0.00075757,"rev_number":9970,"period_min":94.11158701075,"perigee_km":474.08772933711,"apogee_km":476.94844497049,"semimajor_km":6853.6550871538,"source":"CELESTRAK","updated_at":"2026-05-25T13:38:19.280876Z"}}}